User: anonymous   Login
Location: Melbourne
(37.8666°S, 145.1333°E)
Time: 06:18:09
(UTC+10:00)
Language:

ATLAS CENTAUR R/B - Orbit

View from above orbital plane
View from above orbital plane
View from above satellite
View from above satellite

Ground track
Ground track

The orbit data is extracted from the following two-line orbital elements,

1 28385U 04034B   15171.89309186 0.00051000  00000-0  15095-2 0    07
2 28385  57.3178  95.5273 3937386 113.8669 291.8735  7.61529071    06
Epoch (UTC): 20 June 2015 21:26:03
Eccentricity: 0.3937386
inclination: 57.3178°
perigee height: 238 km
apogee height: 8831 km
right ascension of ascending node: 95.5273°
argument of perigee: 113.8669°
revolutions per day: 7.61529071
mean anomaly at epoch: 291.8735°
orbit number at epoch: 0

The dashed part of the orbit path shows where the satellite is in the earth's shadow,  

DLR